Seaglider Denebola on mission DY029 Piloting

  • Public vehicle
  • Serial Number sg534
  • Operated by NOC on the SSB project

  • Deployed: 2015/04/03 00:00:00 UTC (1268 days ago)
  • Recovered: 2015/04/25 00:00:00 UTC (1246 days ago)
  • Time at Sea: 22 days
  • Profiles Performed: 776

Near Real-Time Data

 
cdom
chlor
density
oxygen
potential_temperature
salinity

Communication Log

# Updated Depth Speed Plots
198394 2015-04-25 05:09:47 UTC (1245 days ago)
198825 2015-04-25 04:27:24 UTC (1245 days ago)
198591 2015-04-25 03:48:29 UTC (1245 days ago)
198526 2015-04-25 03:05:19 UTC (1245 days ago)
198378 2015-04-25 02:26:41 UTC (1245 days ago)
198767 2015-04-25 01:48:34 UTC (1245 days ago)
199132 2015-04-25 01:10:24 UTC (1245 days ago)
198586 2015-04-25 00:27:05 UTC (1246 days ago)
198656 2015-04-24 23:47:50 UTC (1246 days ago)
198850 2015-04-24 23:09:59 UTC (1246 days ago)
198868 2015-04-24 22:32:06 UTC (1246 days ago)
199039 2015-04-24 21:52:30 UTC (1246 days ago)
198493 2015-04-24 21:12:48 UTC (1246 days ago)
198752 2015-04-24 20:33:31 UTC (1246 days ago)
199112 2015-04-24 19:54:54 UTC (1246 days ago)
198423 2015-04-24 19:14:35 UTC (1246 days ago)
198914 2015-04-24 18:36:24 UTC (1246 days ago)
198540 2015-04-24 17:58:26 UTC (1246 days ago)
199086 2015-04-24 17:20:05 UTC (1246 days ago)
198624 2015-04-24 16:41:17 UTC (1246 days ago)